Year,Month,Day,Hour,Minute,Value (Times are PST for temperature in C)
2021,08,12,00,00,23.90
2021,08,12,00,01,23.90
2021,08,12,00,02,23.90
2021,08,12,00,03,23.90
2021,08,12,00,04,23.90
2021,08,12,00,05,23.90
2021,08,12,00,06,23.90
2021,08,12,00,07,23.90
2021,08,12,00,08,23.80
2021,08,12,00,09,23.80
2021,08,12,00,10,23.80
2021,08,12,00,11,23.80
2021,08,12,00,12,23.80
2021,08,12,00,13,23.80
2021,08,12,00,14,23.80
2021,08,12,00,15,23.70
2021,08,12,00,16,23.70
2021,08,12,00,17,23.70
2021,08,12,00,18,23.70
2021,08,12,00,19,23.70
2021,08,12,00,20,23.70
2021,08,12,00,21,23.70
2021,08,12,00,22,23.60
2021,08,12,00,23,23.60
2021,08,12,00,24,23.60
2021,08,12,00,25,23.60
2021,08,12,00,26,23.60
2021,08,12,00,27,23.60
2021,08,12,00,28,23.50
2021,08,12,00,29,23.50
2021,08,12,00,30,23.50
2021,08,12,00,31,23.40
2021,08,12,00,32,23.40
2021,08,12,00,33,23.40
2021,08,12,00,34,23.40
2021,08,12,00,35,23.40
2021,08,12,00,36,23.40
2021,08,12,00,37,23.40
2021,08,12,00,38,23.40
2021,08,12,00,39,23.30
2021,08,12,00,40,23.30
2021,08,12,00,41,23.30
2021,08,12,00,42,23.30
2021,08,12,00,43,23.30
2021,08,12,00,44,23.30
2021,08,12,00,45,23.30
2021,08,12,00,46,23.20
2021,08,12,00,47,23.20
2021,08,12,00,48,23.20
2021,08,12,00,49,23.20
2021,08,12,00,50,23.20
2021,08,12,00,51,23.20
2021,08,12,00,52,23.10
2021,08,12,00,53,23.10
2021,08,12,00,54,23.10
2021,08,12,00,55,23.10
2021,08,12,00,56,23.10
2021,08,12,00,57,23.00
2021,08,12,00,58,23.00
2021,08,12,00,59,23.00
2021,08,12,01,00,22.90
2021,08,12,01,01,23.00
2021,08,12,01,02,22.90
2021,08,12,01,03,22.90
2021,08,12,01,04,22.90
2021,08,12,01,05,22.90
2021,08,12,01,06,22.90
2021,08,12,01,07,22.90
2021,08,12,01,08,22.80
2021,08,12,01,09,22.80
2021,08,12,01,10,22.80
2021,08,12,01,11,22.80
2021,08,12,01,12,22.80
2021,08,12,01,13,22.80
2021,08,12,01,14,22.70
2021,08,12,01,15,22.70
2021,08,12,01,16,22.70
2021,08,12,01,17,22.70
2021,08,12,01,18,22.70
2021,08,12,01,19,22.60
2021,08,12,01,20,22.60
2021,08,12,01,21,22.60
2021,08,12,01,22,22.60
2021,08,12,01,23,22.60
2021,08,12,01,24,22.70
2021,08,12,01,25,22.70
2021,08,12,01,26,22.70
2021,08,12,01,27,22.70
2021,08,12,01,28,22.70
2021,08,12,01,29,22.70
2021,08,12,01,30,22.70
2021,08,12,01,31,22.70
2021,08,12,01,32,22.70
2021,08,12,01,33,22.70
2021,08,12,01,34,22.70
2021,08,12,01,35,22.70
2021,08,12,01,36,22.70
2021,08,12,01,37,22.60
2021,08,12,01,38,22.60
2021,08,12,01,39,22.60
2021,08,12,01,40,22.50
2021,08,12,01,41,22.50
2021,08,12,01,42,22.40
2021,08,12,01,43,22.40
2021,08,12,01,44,22.40
2021,08,12,01,45,22.40
2021,08,12,01,46,22.30
2021,08,12,01,47,22.30
2021,08,12,01,48,22.30
2021,08,12,01,49,22.30
2021,08,12,01,50,22.30
2021,08,12,01,51,22.20
2021,08,12,01,52,22.20
2021,08,12,01,53,22.20
2021,08,12,01,54,22.20
2021,08,12,01,55,22.20
2021,08,12,01,56,22.20
2021,08,12,01,57,22.30
2021,08,12,01,58,22.30
2021,08,12,01,59,22.30
2021,08,12,02,00,22.40
2021,08,12,02,01,22.40
2021,08,12,02,02,22.40
2021,08,12,02,03,22.40
2021,08,12,02,04,22.40
2021,08,12,02,05,22.30
2021,08,12,02,06,22.30
2021,08,12,02,07,22.30
2021,08,12,02,08,22.30
2021,08,12,02,09,22.20
2021,08,12,02,10,22.20
2021,08,12,02,11,22.20
2021,08,12,02,12,22.20
2021,08,12,02,13,22.10
2021,08,12,02,14,22.10
2021,08,12,02,15,22.10
2021,08,12,02,16,22.00
2021,08,12,02,17,22.00
2021,08,12,02,18,21.90
2021,08,12,02,19,21.90
2021,08,12,02,20,21.90
2021,08,12,02,21,21.90
2021,08,12,02,22,21.90
2021,08,12,02,23,21.80
2021,08,12,02,24,21.80
2021,08,12,02,25,21.80
2021,08,12,02,26,21.80
2021,08,12,02,27,21.80
2021,08,12,02,28,21.80
2021,08,12,02,29,21.80
2021,08,12,02,30,21.80
2021,08,12,02,31,21.80
2021,08,12,02,32,21.80
2021,08,12,02,33,21.80
2021,08,12,02,34,21.80
2021,08,12,02,35,21.80
2021,08,12,02,36,21.80
2021,08,12,02,37,21.80
2021,08,12,02,38,21.80
2021,08,12,02,39,21.80
2021,08,12,02,40,21.70
2021,08,12,02,41,21.70
2021,08,12,02,42,21.70
2021,08,12,02,43,21.70
2021,08,12,02,44,21.70
2021,08,12,02,45,21.70
2021,08,12,02,46,21.70
2021,08,12,02,47,21.60
2021,08,12,02,48,21.70
2021,08,12,02,49,21.70
2021,08,12,02,50,21.70
2021,08,12,02,51,21.70
2021,08,12,02,52,21.70
2021,08,12,02,53,21.70
2021,08,12,02,54,21.70
2021,08,12,02,55,21.80
2021,08,12,02,56,21.80
2021,08,12,02,57,21.80
2021,08,12,02,58,21.80
2021,08,12,02,59,21.80
2021,08,12,03,00,21.80
2021,08,12,03,01,21.80
2021,08,12,03,02,21.80
2021,08,12,03,03,21.80
2021,08,12,03,04,21.80
2021,08,12,03,05,21.80
2021,08,12,03,06,21.80
2021,08,12,03,07,21.80
2021,08,12,03,08,21.80
2021,08,12,03,09,21.80
2021,08,12,03,10,21.80
2021,08,12,03,11,21.80
2021,08,12,03,12,21.70
2021,08,12,03,13,21.70
2021,08,12,03,14,21.70
2021,08,12,03,15,21.70
2021,08,12,03,16,21.70
2021,08,12,03,17,21.70
2021,08,12,03,18,21.70
2021,08,12,03,19,21.70
2021,08,12,03,20,21.70
2021,08,12,03,21,21.70
2021,08,12,03,22,21.70
2021,08,12,03,23,21.70
2021,08,12,03,24,21.70
2021,08,12,03,25,21.70
2021,08,12,03,26,21.70
2021,08,12,03,27,21.70
2021,08,12,03,28,21.80
2021,08,12,03,29,21.80
2021,08,12,03,30,21.80
2021,08,12,03,31,21.80
2021,08,12,03,32,21.90
2021,08,12,03,33,21.90
2021,08,12,03,34,21.90
2021,08,12,03,35,21.90
2021,08,12,03,36,21.90
2021,08,12,03,37,21.90
2021,08,12,03,38,21.90
2021,08,12,03,39,22.00
2021,08,12,03,40,21.90
2021,08,12,03,41,21.90
2021,08,12,03,42,21.90
2021,08,12,03,43,21.90
2021,08,12,03,44,21.90
2021,08,12,03,45,21.90
2021,08,12,03,46,22.00
2021,08,12,03,47,22.00
2021,08,12,03,48,22.00
2021,08,12,03,49,22.10
2021,08,12,03,50,22.10
2021,08,12,03,51,22.10
2021,08,12,03,52,22.10
2021,08,12,03,53,22.20
2021,08,12,03,54,22.20
2021,08,12,03,55,22.20
2021,08,12,03,56,22.20
2021,08,12,03,57,22.20
2021,08,12,03,58,22.20
2021,08,12,03,59,22.30
2021,08,12,04,00,22.30
2021,08,12,04,01,22.30
2021,08,12,04,02,22.30
2021,08,12,04,03,22.30
2021,08,12,04,04,22.30
2021,08,12,04,05,22.30
2021,08,12,04,06,22.30
2021,08,12,04,07,22.30
2021,08,12,04,08,22.20
2021,08,12,04,09,22.30
2021,08,12,04,10,22.20
2021,08,12,04,11,22.20
2021,08,12,04,12,22.30
2021,08,12,04,13,22.30
2021,08,12,04,14,22.30
2021,08,12,04,15,22.30
2021,08,12,04,16,22.30
2021,08,12,04,17,22.30
2021,08,12,04,18,22.40
2021,08,12,04,19,22.40
2021,08,12,04,20,22.40
2021,08,12,04,21,22.40
2021,08,12,04,22,22.40
2021,08,12,04,23,22.40
2021,08,12,04,24,22.40
2021,08,12,04,25,22.40
2021,08,12,04,26,22.40
2021,08,12,04,27,22.40
2021,08,12,04,28,22.40
2021,08,12,04,29,22.40
2021,08,12,04,30,22.40
2021,08,12,04,31,22.40
2021,08,12,04,32,22.40
2021,08,12,04,33,22.50
2021,08,12,04,34,22.50
2021,08,12,04,35,22.50
2021,08,12,04,36,22.40
2021,08,12,04,37,22.50
2021,08,12,04,38,22.50
2021,08,12,04,39,22.40
2021,08,12,04,40,22.40
2021,08,12,04,41,22.40
2021,08,12,04,42,22.40
2021,08,12,04,43,22.40
2021,08,12,04,44,22.40
2021,08,12,04,45,22.40
2021,08,12,04,46,22.40
2021,08,12,04,47,22.50
2021,08,12,04,48,22.50
2021,08,12,04,49,22.50
2021,08,12,04,50,22.60
2021,08,12,04,51,22.60
2021,08,12,04,52,22.60
2021,08,12,04,53,22.60
2021,08,12,04,54,22.60
2021,08,12,04,55,22.60
2021,08,12,04,56,22.60
2021,08,12,04,57,22.70
2021,08,12,04,58,22.60
2021,08,12,04,59,22.70
2021,08,12,05,00,22.70
2021,08,12,05,01,22.70
2021,08,12,05,02,22.70
2021,08,12,05,03,22.70
2021,08,12,05,04,22.70
2021,08,12,05,05,22.70
2021,08,12,05,06,22.60
2021,08,12,05,07,22.70
2021,08,12,05,08,22.60
2021,08,12,05,09,22.60
2021,08,12,05,10,22.60
2021,08,12,05,11,22.60
2021,08,12,05,12,22.60
2021,08,12,05,13,22.60
2021,08,12,05,14,22.50
2021,08,12,05,15,22.50
2021,08,12,05,16,22.50
2021,08,12,05,17,22.40
2021,08,12,05,18,22.40
2021,08,12,05,19,22.40
2021,08,12,05,20,22.40
2021,08,12,05,21,22.30
2021,08,12,05,22,22.30
2021,08,12,05,23,22.30
2021,08,12,05,24,22.30
2021,08,12,05,25,22.20
2021,08,12,05,26,22.20
2021,08,12,05,27,22.20
2021,08,12,05,28,22.20
2021,08,12,05,29,22.20
2021,08,12,05,30,22.20
2021,08,12,05,31,22.20
2021,08,12,05,32,22.20
2021,08,12,05,33,22.20
2021,08,12,05,34,22.20
2021,08,12,05,35,22.20
2021,08,12,05,36,22.20
2021,08,12,05,37,22.20
2021,08,12,05,38,22.20
2021,08,12,05,39,22.20
2021,08,12,05,40,22.20
2021,08,12,05,41,22.10
2021,08,12,05,42,22.20
2021,08,12,05,43,22.10
2021,08,12,05,44,22.20
2021,08,12,05,45,22.20
2021,08,12,05,46,22.20
2021,08,12,05,47,22.20
2021,08,12,05,48,22.20
2021,08,12,05,49,22.20
2021,08,12,05,50,22.20
2021,08,12,05,51,22.20
2021,08,12,05,52,22.30
2021,08,12,05,53,22.20
2021,08,12,05,54,22.30
2021,08,12,05,55,22.20
2021,08,12,05,56,22.20
2021,08,12,05,57,22.20
2021,08,12,05,58,22.20
2021,08,12,05,59,22.20
2021,08,12,06,00,22.20
2021,08,12,06,01,22.20
2021,08,12,06,02,22.20
2021,08,12,06,03,22.20
2021,08,12,06,04,22.10
2021,08,12,06,05,22.20
2021,08,12,06,06,22.20
2021,08,12,06,07,22.10
2021,08,12,06,08,22.10
2021,08,12,06,09,22.10
2021,08,12,06,10,22.10
2021,08,12,06,11,22.10
2021,08,12,06,12,22.10
2021,08,12,06,13,22.10
2021,08,12,06,14,22.10
2021,08,12,06,15,22.10
2021,08,12,06,16,22.10
2021,08,12,06,17,22.10
2021,08,12,06,18,22.10
2021,08,12,06,19,22.10
2021,08,12,06,20,22.10
2021,08,12,06,21,22.10
2021,08,12,06,22,22.00
2021,08,12,06,23,22.00
2021,08,12,06,24,22.00
2021,08,12,06,25,21.90
2021,08,12,06,26,21.90
2021,08,12,06,27,21.90
2021,08,12,06,28,21.90
2021,08,12,06,29,21.90
2021,08,12,06,30,21.90
2021,08,12,06,31,21.80
2021,08,12,06,32,21.80
2021,08,12,06,33,21.80
2021,08,12,06,34,21.80
2021,08,12,06,35,21.90
2021,08,12,06,36,21.90
2021,08,12,06,37,21.90
2021,08,12,06,38,21.90
2021,08,12,06,39,22.00
2021,08,12,06,40,22.00
2021,08,12,06,41,22.00
2021,08,12,06,42,22.00
2021,08,12,06,43,22.10
2021,08,12,06,44,22.10
2021,08,12,06,45,22.20
2021,08,12,06,46,22.20
2021,08,12,06,47,22.20
2021,08,12,06,48,22.30
2021,08,12,06,49,22.30
2021,08,12,06,50,22.30
2021,08,12,06,51,22.30
2021,08,12,06,52,22.30
2021,08,12,06,53,22.30
2021,08,12,06,54,22.30
2021,08,12,06,55,22.40
2021,08,12,06,56,22.40
2021,08,12,06,57,22.40
2021,08,12,06,58,22.50
2021,08,12,06,59,22.60
2021,08,12,07,00,22.60
2021,08,12,07,01,22.60
2021,08,12,07,02,22.60
2021,08,12,07,03,22.60
2021,08,12,07,04,22.60
2021,08,12,07,05,22.60
2021,08,12,07,06,22.60
2021,08,12,07,07,22.60
2021,08,12,07,08,22.70
2021,08,12,07,09,22.70
2021,08,12,07,10,22.70
2021,08,12,07,11,22.70
2021,08,12,07,12,22.70
2021,08,12,07,13,22.70
2021,08,12,07,14,22.70
2021,08,12,07,15,22.70
2021,08,12,07,16,22.70
2021,08,12,07,17,22.70
2021,08,12,07,18,22.70
2021,08,12,07,19,22.70
2021,08,12,07,20,22.80
2021,08,12,07,21,22.80
2021,08,12,07,22,22.80
2021,08,12,07,23,22.80
2021,08,12,07,24,22.80
2021,08,12,07,25,22.80
2021,08,12,07,26,22.90
2021,08,12,07,27,22.90
2021,08,12,07,28,22.90
2021,08,12,07,29,22.90
2021,08,12,07,30,23.00
2021,08,12,07,31,23.00
2021,08,12,07,32,23.10
2021,08,12,07,33,23.10
2021,08,12,07,34,23.10
2021,08,12,07,35,23.10
2021,08,12,07,36,23.10
2021,08,12,07,37,23.10
2021,08,12,07,38,23.10
2021,08,12,07,39,23.10
2021,08,12,07,40,23.10
2021,08,12,07,41,23.10
2021,08,12,07,42,23.10
2021,08,12,07,43,23.10
2021,08,12,07,44,23.10
2021,08,12,07,45,23.10
2021,08,12,07,46,23.20
2021,08,12,07,47,23.20
2021,08,12,07,48,23.20
2021,08,12,07,49,23.20
2021,08,12,07,50,23.20
2021,08,12,07,51,23.30
2021,08,12,07,52,23.30
2021,08,12,07,53,23.30
2021,08,12,07,54,23.30
2021,08,12,07,55,23.40
2021,08,12,07,56,23.40
2021,08,12,07,57,23.40
2021,08,12,07,58,23.40
2021,08,12,07,59,23.50
2021,08,12,08,00,23.40
2021,08,12,08,01,23.50
2021,08,12,08,02,23.50
2021,08,12,08,03,23.50
2021,08,12,08,04,23.50
2021,08,12,08,05,23.50
2021,08,12,08,06,23.50
2021,08,12,08,07,23.50
2021,08,12,08,08,23.60
2021,08,12,08,09,23.60
2021,08,12,08,10,23.60
2021,08,12,08,11,23.60
2021,08,12,08,12,23.70
2021,08,12,08,13,23.70
2021,08,12,08,14,23.70
2021,08,12,08,15,23.70
2021,08,12,08,16,23.70
2021,08,12,08,17,23.70
2021,08,12,08,18,23.70
2021,08,12,08,19,23.70
2021,08,12,08,20,23.70
2021,08,12,08,21,23.80
2021,08,12,08,22,23.80
2021,08,12,08,23,23.80
2021,08,12,08,24,23.80
2021,08,12,08,25,23.90
2021,08,12,08,26,23.90
2021,08,12,08,27,23.90
2021,08,12,08,28,24.00
2021,08,12,08,29,24.00
2021,08,12,08,30,24.10
2021,08,12,08,31,24.10
2021,08,12,08,32,24.20
2021,08,12,08,33,24.20
2021,08,12,08,34,24.20
2021,08,12,08,35,24.30
2021,08,12,08,36,24.30
2021,08,12,08,37,24.30
2021,08,12,08,38,24.40
2021,08,12,08,39,24.40
2021,08,12,08,40,24.40
2021,08,12,08,41,24.50
2021,08,12,08,42,24.60
2021,08,12,08,43,24.60
2021,08,12,08,44,24.60
2021,08,12,08,45,24.70
2021,08,12,08,46,24.70
2021,08,12,08,47,24.70
2021,08,12,08,48,24.70
2021,08,12,08,49,24.80
2021,08,12,08,50,24.80
2021,08,12,08,51,24.80
2021,08,12,08,52,24.80
2021,08,12,08,53,24.80
2021,08,12,08,54,24.90
2021,08,12,08,55,24.90
2021,08,12,08,56,25.00
2021,08,12,08,57,25.00
2021,08,12,08,58,25.10
2021,08,12,08,59,25.10
2021,08,12,09,00,25.20
2021,08,12,09,01,25.20
2021,08,12,09,02,25.30
2021,08,12,09,03,25.30
2021,08,12,09,04,25.30
2021,08,12,09,05,25.30
2021,08,12,09,06,25.40
2021,08,12,09,07,25.40
2021,08,12,09,08,25.40
2021,08,12,09,09,25.50
2021,08,12,09,10,25.50
2021,08,12,09,11,25.60
2021,08,12,09,12,25.60
2021,08,12,09,13,25.60
2021,08,12,09,14,25.60
2021,08,12,09,15,25.60
2021,08,12,09,16,25.60
2021,08,12,09,17,25.60
2021,08,12,09,18,25.60
2021,08,12,09,19,25.60
2021,08,12,09,20,25.70
2021,08,12,09,21,25.70
2021,08,12,09,22,25.70
2021,08,12,09,23,25.70
2021,08,12,09,24,25.80
2021,08,12,09,25,25.80
2021,08,12,09,26,25.90
2021,08,12,09,27,25.90
2021,08,12,09,28,26.00
2021,08,12,09,29,26.10
2021,08,12,09,30,26.10
2021,08,12,09,31,26.20
2021,08,12,09,32,26.30
2021,08,12,09,33,26.30
2021,08,12,09,34,26.40
2021,08,12,09,35,26.40
2021,08,12,09,36,26.50
2021,08,12,09,37,26.50
2021,08,12,09,38,26.60
2021,08,12,09,39,26.60
2021,08,12,09,40,26.70
2021,08,12,09,41,26.70
2021,08,12,09,42,26.70
2021,08,12,09,43,26.80
2021,08,12,09,44,26.80
2021,08,12,09,45,26.80
2021,08,12,09,46,26.80
2021,08,12,09,47,26.90
2021,08,12,09,48,26.90
2021,08,12,09,49,26.90
2021,08,12,09,50,26.90
2021,08,12,09,51,27.00
2021,08,12,09,52,27.10
2021,08,12,09,53,27.10
2021,08,12,09,54,27.10
2021,08,12,09,55,27.20
2021,08,12,09,56,27.20
2021,08,12,09,57,27.20
2021,08,12,09,58,27.30
2021,08,12,09,59,27.40
2021,08,12,10,00,27.40
2021,08,12,10,01,27.50
2021,08,12,10,02,27.50
2021,08,12,10,03,27.60
2021,08,12,10,04,27.70
2021,08,12,10,05,27.70
2021,08,12,10,06,27.80
2021,08,12,10,07,27.80
2021,08,12,10,08,27.90
2021,08,12,10,09,27.90
2021,08,12,10,10,27.90
2021,08,12,10,11,28.00
2021,08,12,10,12,28.00
2021,08,12,10,13,28.00
2021,08,12,10,14,28.00
2021,08,12,10,15,28.10
2021,08,12,10,16,28.10
2021,08,12,10,17,28.10
2021,08,12,10,18,28.20
2021,08,12,10,19,28.20
2021,08,12,10,20,28.20
2021,08,12,10,21,28.30
2021,08,12,10,22,28.30
2021,08,12,10,23,28.40
2021,08,12,10,24,28.40
2021,08,12,10,25,28.50
2021,08,12,10,26,28.50
2021,08,12,10,27,28.60
2021,08,12,10,28,28.70
2021,08,12,10,29,28.70
2021,08,12,10,30,28.80
2021,08,12,10,31,28.80
2021,08,12,10,32,28.90
2021,08,12,10,33,28.90
2021,08,12,10,34,29.00
2021,08,12,10,35,29.10
2021,08,12,10,36,29.10
2021,08,12,10,37,29.20
2021,08,12,10,38,29.30
2021,08,12,10,39,29.30
2021,08,12,10,40,29.40
2021,08,12,10,41,29.50
2021,08,12,10,42,29.60
2021,08,12,10,43,29.60
2021,08,12,10,44,29.70
2021,08,12,10,45,29.80
2021,08,12,10,46,29.90
2021,08,12,10,47,29.90
2021,08,12,10,48,29.90
2021,08,12,10,49,30.00
2021,08,12,10,50,29.90
2021,08,12,10,51,30.00
2021,08,12,10,52,30.00
2021,08,12,10,53,30.00
2021,08,12,10,54,30.00
2021,08,12,10,55,30.00
2021,08,12,10,56,29.90
2021,08,12,10,57,29.90
2021,08,12,10,58,29.90
2021,08,12,10,59,30.00
2021,08,12,11,00,30.00
2021,08,12,11,01,30.10
2021,08,12,11,02,30.10
2021,08,12,11,03,30.10
2021,08,12,11,04,30.20
2021,08,12,11,05,30.20
2021,08,12,11,06,30.20
2021,08,12,11,07,30.20
2021,08,12,11,08,30.30
2021,08,12,11,09,30.30
2021,08,12,11,10,30.40
2021,08,12,11,11,30.40
2021,08,12,11,12,30.50
2021,08,12,11,13,30.50
2021,08,12,11,14,30.60
2021,08,12,11,15,30.70
2021,08,12,11,16,30.70
2021,08,12,11,17,30.80
2021,08,12,11,18,30.90
2021,08,12,11,19,30.90
2021,08,12,11,20,31.00
2021,08,12,11,21,31.00
2021,08,12,11,22,31.00
2021,08,12,11,23,31.10
2021,08,12,11,24,31.10
2021,08,12,11,25,31.10
2021,08,12,11,26,31.20
2021,08,12,11,27,31.10
2021,08,12,11,28,31.10
2021,08,12,11,29,31.10
2021,08,12,11,30,31.20
2021,08,12,11,31,31.20
2021,08,12,11,32,31.20
2021,08,12,11,33,31.20
2021,08,12,11,34,31.30
2021,08,12,11,35,31.40
2021,08,12,11,36,31.40
2021,08,12,11,37,31.50
2021,08,12,11,38,31.50
2021,08,12,11,39,31.60
2021,08,12,11,40,31.70
2021,08,12,11,41,31.70
2021,08,12,11,42,31.70
2021,08,12,11,43,31.70
2021,08,12,11,44,31.70
2021,08,12,11,45,31.80
2021,08,12,11,46,31.80
2021,08,12,11,47,31.80
2021,08,12,11,48,31.80
2021,08,12,11,49,31.90
2021,08,12,11,50,32.00
2021,08,12,11,51,32.00
2021,08,12,11,52,31.90
2021,08,12,11,53,31.90
2021,08,12,11,54,32.00
2021,08,12,11,55,32.00
2021,08,12,11,56,32.10
2021,08,12,11,57,32.00
2021,08,12,11,58,32.10
2021,08,12,11,59,32.10
2021,08,12,12,00,32.20
2021,08,12,12,01,32.20
2021,08,12,12,02,32.20
2021,08,12,12,03,32.30
2021,08,12,12,04,32.10
2021,08,12,12,05,32.00
2021,08,12,12,06,31.90
2021,08,12,12,07,31.80
2021,08,12,12,08,31.80
2021,08,12,12,09,31.80
2021,08,12,12,10,31.70
2021,08,12,12,11,31.70
2021,08,12,12,12,31.70
2021,08,12,12,13,31.70
2021,08,12,12,14,31.70
2021,08,12,12,15,31.60
2021,08,12,12,16,31.60
2021,08,12,12,17,31.60
2021,08,12,12,18,31.50
2021,08,12,12,19,31.50
2021,08,12,12,20,31.50
2021,08,12,12,21,31.40
2021,08,12,12,22,31.40
2021,08,12,12,23,31.40
2021,08,12,12,24,31.40
2021,08,12,12,25,31.40
2021,08,12,12,26,31.40
2021,08,12,12,27,31.50
2021,08,12,12,28,31.50
2021,08,12,12,29,31.60
2021,08,12,12,30,31.60
2021,08,12,12,31,31.70
2021,08,12,12,32,31.80
2021,08,12,12,33,31.80
2021,08,12,12,34,31.90
2021,08,12,12,35,32.00
2021,08,12,12,36,32.10
2021,08,12,12,37,32.10
2021,08,12,12,38,32.20
2021,08,12,12,39,32.20
2021,08,12,12,40,32.20
2021,08,12,12,41,32.30
2021,08,12,12,42,32.30
2021,08,12,12,43,32.40
2021,08,12,12,44,32.50
2021,08,12,12,45,32.60
2021,08,12,12,46,32.60
2021,08,12,12,47,32.70
2021,08,12,12,48,32.70
2021,08,12,12,49,32.80
2021,08,12,12,50,32.80
2021,08,12,12,51,32.80
2021,08,12,12,52,32.90
2021,08,12,12,53,33.00
2021,08,12,12,54,33.10
2021,08,12,12,55,33.20
2021,08,12,12,56,33.30
2021,08,12,12,57,33.40
2021,08,12,12,58,33.40
2021,08,12,12,59,33.50
2021,08,12,13,00,33.60
2021,08,12,13,01,33.60
2021,08,12,13,02,33.60
2021,08,12,13,03,33.50
2021,08,12,13,04,33.50
2021,08,12,13,05,33.50
2021,08,12,13,06,33.60
2021,08,12,13,07,33.70
2021,08,12,13,08,33.70
2021,08,12,13,09,33.70
2021,08,12,13,10,33.70
2021,08,12,13,11,33.80
2021,08,12,13,12,33.80
2021,08,12,13,13,33.80
2021,08,12,13,14,33.90
2021,08,12,13,15,33.90
2021,08,12,13,16,33.90
2021,08,12,13,17,33.90
2021,08,12,13,18,33.90
2021,08,12,13,19,34.00
2021,08,12,13,20,34.10
2021,08,12,13,21,34.20
2021,08,12,13,22,34.20
2021,08,12,13,23,34.30
2021,08,12,13,24,34.40
2021,08,12,13,25,34.40
2021,08,12,13,26,34.40
2021,08,12,13,27,34.30
2021,08,12,13,28,34.30
2021,08,12,13,29,34.30
2021,08,12,13,30,34.30
2021,08,12,13,31,34.40
2021,08,12,13,32,34.40
2021,08,12,13,33,34.50
2021,08,12,13,34,34.50
2021,08,12,13,35,34.50
2021,08,12,13,36,34.50
2021,08,12,13,37,34.40
2021,08,12,13,38,34.40
2021,08,12,13,39,34.50
2021,08,12,13,40,34.50
2021,08,12,13,41,34.50
2021,08,12,13,42,34.60
2021,08,12,13,43,34.60
2021,08,12,13,44,34.50
2021,08,12,13,45,34.50
2021,08,12,13,46,34.40
2021,08,12,13,47,34.50
2021,08,12,13,48,34.50
2021,08,12,13,49,34.50
2021,08,12,13,50,34.40
2021,08,12,13,51,34.40
2021,08,12,13,52,34.40
2021,08,12,13,53,34.40
2021,08,12,13,54,34.40
2021,08,12,13,55,34.30
2021,08,12,13,56,34.20
2021,08,12,13,57,34.20
2021,08,12,13,58,34.10
2021,08,12,13,59,34.10
2021,08,12,14,00,34.10
2021,08,12,14,01,34.10
2021,08,12,14,02,34.10
2021,08,12,14,03,34.20
2021,08,12,14,04,34.20
2021,08,12,14,05,34.20
2021,08,12,14,06,34.20
2021,08,12,14,07,34.20
2021,08,12,14,08,34.30
2021,08,12,14,09,34.30
2021,08,12,14,10,34.40
2021,08,12,14,11,34.40
2021,08,12,14,12,34.50
2021,08,12,14,13,34.50
2021,08,12,14,14,34.50
2021,08,12,14,15,34.60
2021,08,12,14,16,34.60
2021,08,12,14,17,34.60
2021,08,12,14,18,34.70
2021,08,12,14,19,34.80
2021,08,12,14,20,34.80
2021,08,12,14,21,34.90
2021,08,12,14,22,34.90
2021,08,12,14,23,34.90
2021,08,12,14,24,35.00
2021,08,12,14,25,35.10
2021,08,12,14,26,35.20
2021,08,12,14,27,35.20
2021,08,12,14,28,35.20
2021,08,12,14,29,35.20
2021,08,12,14,30,35.20
2021,08,12,14,31,35.20
2021,08,12,14,32,35.20
2021,08,12,14,33,35.10
2021,08,12,14,34,35.10
2021,08,12,14,35,35.10
2021,08,12,14,36,35.10
2021,08,12,14,37,35.20
2021,08,12,14,38,35.20
2021,08,12,14,39,35.20
2021,08,12,14,40,35.30
2021,08,12,14,41,35.30
2021,08,12,14,42,35.20
2021,08,12,14,43,35.20
2021,08,12,14,44,35.20
2021,08,12,14,45,35.20
2021,08,12,14,46,35.20
2021,08,12,14,47,35.20
2021,08,12,14,48,35.20
2021,08,12,14,49,35.20
2021,08,12,14,50,35.20
2021,08,12,14,51,35.20
2021,08,12,14,52,35.10
2021,08,12,14,53,35.10
2021,08,12,14,54,35.10
2021,08,12,14,55,35.10
2021,08,12,14,56,35.10
2021,08,12,14,57,35.20
2021,08,12,14,58,35.20
2021,08,12,14,59,35.20
2021,08,12,15,00,35.20
2021,08,12,15,01,35.20
2021,08,12,15,02,35.30
2021,08,12,15,03,35.40
2021,08,12,15,04,35.40
2021,08,12,15,05,35.50
2021,08,12,15,06,35.50
2021,08,12,15,07,35.60
2021,08,12,15,08,35.60
2021,08,12,15,09,35.60
2021,08,12,15,10,35.60
2021,08,12,15,11,35.60
2021,08,12,15,12,35.60
2021,08,12,15,13,35.60
2021,08,12,15,14,35.60
2021,08,12,15,15,35.50
2021,08,12,15,16,35.40
2021,08,12,15,17,35.40
2021,08,12,15,18,35.30
2021,08,12,15,19,35.30
2021,08,12,15,20,35.30
2021,08,12,15,21,35.30
2021,08,12,15,22,35.30
2021,08,12,15,23,35.30
2021,08,12,15,24,35.30
2021,08,12,15,25,35.30
2021,08,12,15,26,35.40
2021,08,12,15,27,35.30
2021,08,12,15,28,35.30
2021,08,12,15,29,35.30
2021,08,12,15,30,35.30
2021,08,12,15,31,35.30
2021,08,12,15,32,35.20
2021,08,12,15,33,35.20
2021,08,12,15,34,35.10
2021,08,12,15,35,35.10
2021,08,12,15,36,35.10
2021,08,12,15,37,35.00
2021,08,12,15,38,35.10
2021,08,12,15,39,35.10
2021,08,12,15,40,35.10
2021,08,12,15,41,35.00
2021,08,12,15,42,35.00
2021,08,12,15,43,35.00
2021,08,12,15,44,35.00
2021,08,12,15,45,35.00
2021,08,12,15,46,35.00
2021,08,12,15,47,35.00
2021,08,12,15,48,35.10
2021,08,12,15,49,35.20
2021,08,12,15,50,35.10
2021,08,12,15,51,35.10
2021,08,12,15,52,35.10
2021,08,12,15,53,35.10
2021,08,12,15,54,35.10
2021,08,12,15,55,35.20
2021,08,12,15,56,35.20
2021,08,12,15,57,35.20
2021,08,12,15,58,35.30
2021,08,12,15,59,35.30
2021,08,12,16,00,35.30
2021,08,12,16,01,35.40
2021,08,12,16,02,35.40
2021,08,12,16,03,35.40
2021,08,12,16,04,35.40
2021,08,12,16,05,35.50
2021,08,12,16,06,35.60
2021,08,12,16,07,35.70
2021,08,12,16,08,35.70
2021,08,12,16,09,35.80
2021,08,12,16,10,35.80
2021,08,12,16,11,35.80
2021,08,12,16,12,35.80
2021,08,12,16,13,35.70
2021,08,12,16,14,35.70
2021,08,12,16,15,35.60
2021,08,12,16,16,35.60
2021,08,12,16,17,35.50
2021,08,12,16,18,35.50
2021,08,12,16,19,35.50
2021,08,12,16,20,35.60
2021,08,12,16,21,35.60
2021,08,12,16,22,35.70
2021,08,12,16,23,35.70
2021,08,12,16,24,35.70
2021,08,12,16,25,35.60
2021,08,12,16,26,35.40
2021,08,12,16,27,35.30
2021,08,12,16,28,35.20
2021,08,12,16,29,35.20
2021,08,12,16,30,35.20
2021,08,12,16,31,35.10
2021,08,12,16,32,35.20
2021,08,12,16,33,35.20
2021,08,12,16,34,35.30
2021,08,12,16,35,35.40
2021,08,12,16,36,35.40
2021,08,12,16,37,35.50
2021,08,12,16,38,35.60
2021,08,12,16,39,35.60
2021,08,12,16,40,35.60
2021,08,12,16,41,35.70
2021,08,12,16,42,35.70
2021,08,12,16,43,35.70
2021,08,12,16,44,35.70
2021,08,12,16,45,35.80
2021,08,12,16,46,35.80
2021,08,12,16,47,35.80
2021,08,12,16,48,35.80
2021,08,12,16,49,35.80
2021,08,12,16,50,35.80
2021,08,12,16,51,35.70
2021,08,12,16,52,35.70
2021,08,12,16,53,35.70
2021,08,12,16,54,35.70
2021,08,12,16,55,35.70
2021,08,12,16,56,35.70
2021,08,12,16,57,35.70
2021,08,12,16,58,35.80
2021,08,12,16,59,35.90
2021,08,12,17,00,35.90
2021,08,12,17,01,35.90
2021,08,12,17,02,36.00
2021,08,12,17,03,35.90
2021,08,12,17,04,35.90
2021,08,12,17,05,35.90
2021,08,12,17,06,35.90
2021,08,12,17,07,36.10
2021,08,12,17,08,36.10
2021,08,12,17,09,36.20
2021,08,12,17,10,36.20
2021,08,12,17,11,36.20
2021,08,12,17,12,36.30
2021,08,12,17,13,36.30
2021,08,12,17,14,36.30
2021,08,12,17,15,36.30
2021,08,12,17,16,36.30
2021,08,12,17,17,36.20
2021,08,12,17,18,36.20
2021,08,12,17,19,36.10